Time,TemperatureF,DewpointF,PressureIn,WindDirection,WindDirectionDegrees,WindSpeedMPH,WindSpeedGustMPH,Humidity,HourlyPrecipIn,Conditions,Clouds,dailyrainin,SoftwareType,DateUTC
2013-03-06 00:00:00,36.9,8.3,29.15,SE,132,3.1,3.6,30,0.00,,---,0.00,VWS V14.01,2013-03-06 05:00:00,
2013-03-06 00:02:00,36.9,8.3,29.15,East,92,0.0,4.5,30,0.00,,---,0.00,VWS V14.01,2013-03-06 05:02:00,
2013-03-06 00:03:00,36.9,8.3,29.15,SE,131,2.7,4.0,30,0.00,,---,0.00,VWS V14.01,2013-03-06 05:03:00,
2013-03-06 00:07:00,36.9,8.3,29.15,SSE,148,3.1,3.6,30,0.00,,---,0.00,VWS V14.01,2013-03-06 05:07:00,
2013-03-06 00:12:00,36.9,8.3,29.15,SSE,156,0.0,0.0,30,0.00,,---,0.00,VWS V14.01,2013-03-06 05:12:00,
2013-03-06 00:17:00,36.9,8.3,29.15,SE,141,4.5,4.5,30,0.00,,---,0.00,VWS V14.01,2013-03-06 05:17:00,
2013-03-06 00:22:00,37.0,9.2,29.15,SSE,155,2.7,3.6,31,0.00,,---,0.00,VWS V14.01,2013-03-06 05:22:00,
2013-03-06 00:27:00,36.9,9.1,29.15,East,90,0.0,2.7,31,0.00,,---,0.00,VWS V14.01,2013-03-06 05:27:00,
2013-03-06 00:32:00,36.9,9.1,29.15,SE,135,4.0,5.4,31,0.00,,---,0.00,VWS V14.01,2013-03-06 05:32:00,
2013-03-06 00:37:00,36.9,9.1,29.15,South,178,0.0,0.0,31,0.00,,---,0.00,VWS V14.01,2013-03-06 05:37:00,
2013-03-06 00:42:00,36.9,9.1,29.15,ESE,118,4.0,5.8,31,0.00,,---,0.00,VWS V14.01,2013-03-06 05:42:00,
2013-03-06 00:47:00,36.9,9.1,29.15,East,98,0.0,0.0,31,0.00,,---,0.00,VWS V14.01,2013-03-06 05:47:00,
2013-03-06 00:52:00,36.9,9.1,29.15,SE,127,0.0,4.0,31,0.00,,---,0.00,VWS V14.01,2013-03-06 05:52:00,
2013-03-06 00:57:00,36.9,9.1,29.15,East,101,2.7,4.0,31,0.00,,---,0.00,VWS V14.01,2013-03-06 05:57:00,
2013-03-06 01:02:00,36.9,9.1,29.15,ESE,113,4.0,4.0,31,0.00,,---,0.00,VWS V14.01,2013-03-06 06:02:00,
2013-03-06 01:08:00,36.9,9.1,29.15,SE,128,3.6,4.0,31,0.00,,---,0.00,VWS V14.01,2013-03-06 06:08:00,
2013-03-06 01:13:00,36.9,9.1,29.15,East,100,3.1,4.9,31,0.00,,---,0.00,VWS V14.01,2013-03-06 06:13:00,
2013-03-06 01:19:00,36.9,9.1,29.15,East,89,3.1,4.9,31,0.00,,---,0.00,VWS V14.01,2013-03-06 06:19:00,
2013-03-06 01:24:00,36.9,9.1,29.15,SSE,165,0.0,3.6,31,0.00,,---,0.00,VWS V14.01,2013-03-06 06:24:00,
2013-03-06 01:30:00,36.9,9.1,29.15,ESE,117,4.5,6.9,31,0.00,,---,0.00,VWS V14.01,2013-03-06 06:30:00,
2013-03-06 01:35:00,36.9,9.1,29.15,ENE,78,3.1,4.5,31,0.00,,---,0.00,VWS V14.01,2013-03-06 06:35:00,
2013-03-06 01:40:00,36.9,9.1,29.15,ENE,78,2.7,3.6,31,0.00,,---,0.00,VWS V14.01,2013-03-06 06:40:00,
2013-03-06 01:45:00,36.9,9.1,29.15,SSE,167,3.6,3.6,31,0.00,,---,0.00,VWS V14.01,2013-03-06 06:45:00,
2013-03-06 01:50:00,36.9,9.1,29.15,ESE,115,3.6,3.6,31,0.00,,---,0.00,VWS V14.01,2013-03-06 06:50:00,
2013-03-06 01:55:00,36.9,9.1,29.15,ENE,73,3.6,5.4,31,0.00,,---,0.00,VWS V14.01,2013-03-06 06:55:00,
2013-03-06 02:00:00,36.7,8.9,29.15,SSE,160,0.0,0.0,31,0.00,,---,0.00,VWS V14.01,2013-03-06 07:00:00,
2013-03-06 02:05:00,36.7,8.9,29.15,ENE,73,0.0,0.0,31,0.00,,---,0.00,VWS V14.01,2013-03-06 07:05:00,
2013-03-06 02:10:00,36.7,9.6,29.15,ESE,121,4.5,5.4,32,0.00,,---,0.00,VWS V14.01,2013-03-06 07:10:00,
2013-03-06 02:15:00,36.7,9.6,29.12,East,94,4.0,4.9,32,0.00,,---,0.00,VWS V14.01,2013-03-06 07:15:00,
2013-03-06 02:20:00,36.7,9.6,29.12,ENE,71,2.7,3.6,32,0.00,,---,0.00,VWS V14.01,2013-03-06 07:20:00,
2013-03-06 02:25:00,36.7,9.6,29.12,South,169,4.0,4.0,32,0.00,,---,0.00,VWS V14.01,2013-03-06 07:25:00,
2013-03-06 02:30:00,36.7,9.6,29.12,NE,37,3.6,4.0,32,0.00,,---,0.00,VWS V14.01,2013-03-06 07:30:00,
2013-03-06 02:35:00,36.5,10.1,29.12,East,85,2.7,3.6,33,0.00,,---,0.00,VWS V14.01,2013-03-06 07:35:00,
2013-03-06 02:40:00,36.5,10.1,29.12,East,81,0.0,0.0,33,0.00,,---,0.00,VWS V14.01,2013-03-06 07:40:00,
2013-03-06 02:45:00,36.3,10.0,29.12,East,101,2.7,4.9,33,0.00,,---,0.00,VWS V14.01,2013-03-06 07:45:00,
2013-03-06 02:50:00,36.3,10.0,29.12,ENE,69,3.1,4.5,33,0.00,,---,0.00,VWS V14.01,2013-03-06 07:50:00,
2013-03-06 02:55:00,36.1,9.8,29.12,ENE,66,4.0,4.0,33,0.00,,---,0.00,VWS V14.01,2013-03-06 07:55:00,
2013-03-06 03:00:00,36.0,10.3,29.12,SE,128,3.6,5.4,34,0.00,,---,0.00,VWS V14.01,2013-03-06 08:00:00,
2013-03-06 03:05:00,36.0,10.3,29.12,ESE,114,6.3,6.3,34,0.00,,---,0.00,VWS V14.01,2013-03-06 08:05:00,
2013-03-06 03:10:00,36.0,11.6,29.12,SSE,159,3.1,3.1,36,0.00,,---,0.00,VWS V14.01,2013-03-06 08:10:00,
2013-03-06 03:15:00,36.0,12.2,29.12,SE,131,3.6,4.5,37,0.00,,---,0.00,VWS V14.01,2013-03-06 08:15:00,
2013-03-06 03:20:00,36.1,12.4,29.12,SE,143,3.1,3.1,37,0.00,,---,0.00,VWS V14.01,2013-03-06 08:20:00,
2013-03-06 03:25:00,36.1,13.0,29.12,SE,131,4.0,5.4,38,0.00,,---,0.00,VWS V14.01,2013-03-06 08:25:00,
2013-03-06 03:30:00,36.1,13.6,29.12,East,89,2.7,5.4,39,0.00,,---,0.00,VWS V14.01,2013-03-06 08:30:00,
2013-03-06 03:35:00,36.1,13.0,29.12,ESE,113,3.1,4.9,38,0.00,,---,0.00,VWS V14.01,2013-03-06 08:35:00,
2013-03-06 03:40:00,36.1,13.6,29.12,SE,126,6.9,6.9,39,0.00,,---,0.00,VWS V14.01,2013-03-06 08:40:00,
2013-03-06 03:45:00,36.1,13.6,29.12,SSE,165,2.7,4.5,39,0.00,,---,0.00,VWS V14.01,2013-03-06 08:45:00,
2013-03-06 03:50:00,36.1,13.6,29.12,ENE,63,3.6,6.9,39,0.00,,---,0.00,VWS V14.01,2013-03-06 08:50:00,
2013-03-06 03:55:00,36.1,13.6,29.12,ENE,75,2.7,4.0,39,0.00,,---,0.00,VWS V14.01,2013-03-06 08:55:00,
2013-03-06 04:00:00,36.1,13.6,29.09,ENE,72,3.1,4.0,39,0.00,,---,0.00,VWS V14.01,2013-03-06 09:00:00,
2013-03-06 04:05:00,36.1,13.6,29.09,ENE,68,3.1,5.8,39,0.00,,---,0.00,VWS V14.01,2013-03-06 09:05:00,
2013-03-06 04:10:00,36.1,13.6,29.09,North,0,5.4,6.9,39,0.00,,---,0.00,VWS V14.01,2013-03-06 09:10:00,
2013-03-06 04:15:00,36.1,13.6,29.09,NE,48,5.8,8.3,39,0.00,,---,0.00,VWS V14.01,2013-03-06 09:15:00,
2013-03-06 04:20:00,36.1,13.6,29.09,ESE,106,4.9,5.8,39,0.00,,---,0.00,VWS V14.01,2013-03-06 09:20:00,
2013-03-06 04:25:00,36.1,13.6,29.09,North,351,3.1,5.8,39,0.00,,---,0.00,VWS V14.01,2013-03-06 09:25:00,
2013-03-06 04:30:00,36.1,13.6,29.09,East,90,6.7,6.7,39,0.00,,---,0.00,VWS V14.01,2013-03-06 09:30:00,
2013-03-06 04:35:00,36.1,14.2,29.09,NE,44,4.5,8.3,40,0.00,,---,0.00,VWS V14.01,2013-03-06 09:35:00,
2013-03-06 04:40:00,36.1,14.2,29.09,East,89,8.3,9.6,40,0.00,,---,0.00,VWS V14.01,2013-03-06 09:40:00,
2013-03-06 04:45:00,36.3,14.3,29.09,East,97,6.7,11.0,40,0.00,,---,0.00,VWS V14.01,2013-03-06 09:45:00,
2013-03-06 04:50:00,36.1,14.2,29.09,ESE,119,6.7,8.7,40,0.00,,---,0.00,VWS V14.01,2013-03-06 09:50:00,
2013-03-06 04:55:00,36.3,14.3,29.09,SE,132,3.1,5.8,40,0.00,,---,0.00,VWS V14.01,2013-03-06 09:55:00,
2013-03-06 05:00:00,36.3,14.3,29.09,East,87,6.7,6.7,40,0.00,,---,0.00,VWS V14.01,2013-03-06 10:00:00,
2013-03-06 05:05:00,36.3,14.3,29.09,NE,49,4.9,7.8,40,0.00,,---,0.00,VWS V14.01,2013-03-06 10:05:00,
2013-03-06 05:10:00,36.1,14.2,29.09,East,88,4.9,7.8,40,0.00,,---,0.00,VWS V14.01,2013-03-06 10:10:00,
2013-03-06 05:15:00,36.1,14.2,29.09,East,83,4.0,4.5,40,0.00,,---,0.00,VWS V14.01,2013-03-06 10:15:00,
2013-03-06 05:20:00,36.1,14.2,29.09,ENE,71,0.0,4.5,40,0.00,,---,0.00,VWS V14.01,2013-03-06 10:20:00,
2013-03-06 05:25:00,36.0,14.0,29.09,SE,125,3.1,4.9,40,0.00,,---,0.00,VWS V14.01,2013-03-06 10:25:00,
2013-03-06 05:30:00,35.8,13.8,29.09,NNE,27,2.7,4.5,40,0.00,,---,0.00,VWS V14.01,2013-03-06 10:30:00,
2013-03-06 05:35:00,35.8,13.8,29.09,ENE,63,4.5,5.4,40,0.00,,---,0.00,VWS V14.01,2013-03-06 10:35:00,
2013-03-06 05:40:00,36.0,14.6,29.09,NNE,26,4.5,7.4,41,0.00,,---,0.00,VWS V14.01,2013-03-06 10:40:00,
2013-03-06 05:45:00,36.0,14.6,29.09,South,185,7.8,11.6,41,0.00,,---,0.00,VWS V14.01,2013-03-06 10:45:00,
2013-03-06 05:50:00,35.8,14.4,29.09,NNW,342,3.6,5.8,41,0.00,,---,0.00,VWS V14.01,2013-03-06 10:50:00,
2013-03-06 05:55:00,35.8,14.4,29.09,East,90,9.6,9.6,41,0.00,,---,0.00,VWS V14.01,2013-03-06 10:55:00,
2013-03-06 06:00:00,35.8,14.4,29.09,ESE,122,4.5,5.8,41,0.00,,---,0.00,VWS V14.01,2013-03-06 11:00:00,
2013-03-06 06:05:00,35.6,14.8,29.09,SE,129,4.9,6.9,42,0.00,,---,0.00,VWS V14.01,2013-03-06 11:05:00,
2013-03-06 06:10:00,35.6,14.8,29.09,East,82,4.9,11.0,42,0.00,,---,0.00,VWS V14.01,2013-03-06 11:10:00,
2013-03-06 06:15:00,35.6,14.8,29.09,SE,146,5.8,9.2,42,0.00,,---,0.00,VWS V14.01,2013-03-06 11:15:00,
2013-03-06 06:20:00,35.6,14.8,29.09,NE,54,4.5,7.4,42,0.00,,---,0.00,VWS V14.01,2013-03-06 11:20:00,
2013-03-06 06:25:00,35.8,15.5,29.09,NE,56,11.0,11.0,43,0.00,,---,0.00,VWS V14.01,2013-03-06 11:25:00,
2013-03-06 06:30:00,35.8,15.5,29.09,ENE,73,4.9,6.9,43,0.00,,---,0.00,VWS V14.01,2013-03-06 11:30:00,
2013-03-06 06:35:00,35.8,15.5,29.09,ESE,105,6.3,11.0,43,0.00,,---,0.00,VWS V14.01,2013-03-06 11:35:00,
2013-03-06 06:40:00,35.8,16.0,29.09,ESE,102,6.7,16.8,44,0.00,,---,0.00,VWS V14.01,2013-03-06 11:40:00,
2013-03-06 06:45:00,35.8,16.0,29.09,ESE,106,4.9,4.9,44,0.00,,---,0.00,VWS V14.01,2013-03-06 11:45:00,
2013-03-06 06:50:00,35.8,16.0,29.09,ENE,74,3.6,6.9,44,0.00,,---,0.00,VWS V14.01,2013-03-06 11:50:00,
2013-03-06 06:55:00,35.8,16.5,29.09,East,96,4.0,6.7,45,0.00,,---,0.00,VWS V14.01,2013-03-06 11:55:00,
2013-03-06 07:00:00,35.8,17.0,29.09,ENE,67,5.4,5.8,46,0.00,,---,0.00,VWS V14.01,2013-03-06 12:00:00,
2013-03-06 07:05:00,35.8,17.5,29.09,ESE,122,4.0,8.7,47,0.00,,---,0.00,VWS V14.01,2013-03-06 12:05:00,
2013-03-06 07:10:00,35.6,18.3,29.09,ESE,117,6.3,7.4,49,0.00,,---,0.00,VWS V14.01,2013-03-06 12:10:00,
2013-03-06 07:15:00,35.6,18.3,29.09,NE,51,3.6,7.8,49,0.00,,---,0.00,VWS V14.01,2013-03-06 12:15:00,
2013-03-06 07:20:00,35.6,18.8,29.09,East,88,2.7,9.6,50,0.00,,---,0.00,VWS V14.01,2013-03-06 12:20:00,
2013-03-06 07:25:00,35.6,18.8,29.09,North,0,3.1,12.5,50,0.00,,---,0.00,VWS V14.01,2013-03-06 12:25:00,
2013-03-06 07:30:00,35.6,18.8,29.09,ESE,119,4.0,13.4,50,0.00,,---,0.00,VWS V14.01,2013-03-06 12:30:00,
2013-03-06 07:35:00,35.8,19.0,29.09,East,92,4.9,6.7,50,0.00,,---,0.00,VWS V14.01,2013-03-06 12:35:00,
2013-03-06 07:40:00,36.0,19.1,29.09,ESE,114,6.3,8.3,50,0.00,,---,0.00,VWS V14.01,2013-03-06 12:40:00,
2013-03-06 07:45:00,36.0,18.7,29.09,ESE,120,0.0,5.8,49,0.00,,---,0.00,VWS V14.01,2013-03-06 12:45:00,
2013-03-06 07:51:00,36.0,17.7,29.09,SE,128,9.2,9.2,47,0.00,,---,0.00,VWS V14.01,2013-03-06 12:51:00,
2013-03-06 07:56:00,36.1,17.9,29.09,SE,125,0.0,8.3,47,0.00,,---,0.00,VWS V14.01,2013-03-06 12:56:00,
2013-03-06 08:01:00,36.1,17.4,29.09,ENE,70,7.4,9.2,46,0.00,,---,0.00,VWS V14.01,2013-03-06 13:01:00,
2013-03-06 08:06:00,36.1,17.4,29.09,ESE,108,5.8,8.7,46,0.00,,---,0.00,VWS V14.01,2013-03-06 13:06:00,
2013-03-06 08:11:00,36.1,17.4,29.09,North,351,3.1,6.9,46,0.00,,---,0.00,VWS V14.01,2013-03-06 13:11:00,
2013-03-06 08:16:00,36.1,17.4,29.09,NE,36,3.1,7.4,46,0.00,,---,0.00,VWS V14.01,2013-03-06 13:16:00,
2013-03-06 08:21:00,36.1,17.9,29.09,ENE,70,5.4,8.3,47,0.00,,---,0.00,VWS V14.01,2013-03-06 13:21:00,
2013-03-06 08:26:00,36.1,18.4,29.09,ENE,58,7.4,7.4,48,0.00,,---,0.00,VWS V14.01,2013-03-06 13:26:00,
2013-03-06 08:31:00,36.1,19.3,29.09,East,89,9.2,9.2,50,0.00,,---,0.00,VWS V14.01,2013-03-06 13:31:00,
2013-03-06 08:36:00,36.1,19.8,29.09,NNE,14,6.9,10.1,51,0.00,,---,0.00,VWS V14.01,2013-03-06 13:36:00,
2013-03-06 08:41:00,36.1,19.8,29.09,ENE,60,5.4,8.7,51,0.00,,---,0.00,VWS V14.01,2013-03-06 13:41:00,
2013-03-06 08:46:00,36.1,20.2,29.09,ENE,67,8.3,8.3,52,0.00,,---,0.00,VWS V14.01,2013-03-06 13:46:00,
2013-03-06 08:51:00,36.0,20.5,29.09,North,351,5.8,10.1,53,0.00,,---,0.00,VWS V14.01,2013-03-06 13:51:00,
2013-03-06 08:56:00,35.8,20.8,29.09,NNE,33,0.0,6.7,54,0.00,,---,0.00,VWS V14.01,2013-03-06 13:56:00,
2013-03-06 09:01:00,36.0,21.4,29.09,ESE,113,4.9,6.3,55,0.00,,---,0.00,VWS V14.01,2013-03-06 14:01:00,
2013-03-06 09:06:00,35.8,21.6,29.09,ESE,103,8.3,8.3,56,0.00,,---,0.00,VWS V14.01,2013-03-06 14:06:00,
2013-03-06 09:11:00,35.8,22.5,29.09,ESE,112,3.6,4.9,58,0.00,,---,0.00,VWS V14.01,2013-03-06 14:11:00,
2013-03-06 09:16:00,35.8,22.9,29.09,ESE,111,4.5,5.4,59,0.00,,---,0.00,VWS V14.01,2013-03-06 14:16:00,
2013-03-06 09:21:00,35.8,23.7,29.09,NE,47,6.9,8.3,61,0.00,,---,0.00,VWS V14.01,2013-03-06 14:21:00,
2013-03-06 09:26:00,35.8,24.0,29.09,ESE,109,4.5,8.3,62,0.00,,---,0.00,VWS V14.01,2013-03-06 14:26:00,
2013-03-06 09:31:00,35.8,24.4,29.09,ENE,61,4.0,6.7,63,0.00,,---,0.00,VWS V14.01,2013-03-06 14:31:00,
2013-03-06 09:36:00,35.8,24.8,29.09,ESE,117,10.5,11.0,64,0.00,,---,0.00,VWS V14.01,2013-03-06 14:36:00,
2013-03-06 09:41:00,36.0,25.4,29.09,NE,54,6.3,9.6,65,0.00,,---,0.00,VWS V14.01,2013-03-06 14:41:00,
2013-03-06 09:47:00,36.0,25.4,29.09,ENE,73,4.5,10.1,65,0.00,,---,0.00,VWS V14.01,2013-03-06 14:47:00,
2013-03-06 09:52:00,36.1,25.5,29.09,North,2,0.0,5.8,65,0.00,,---,0.00,VWS V14.01,2013-03-06 14:52:00,
2013-03-06 09:57:00,36.3,26.1,29.09,NE,44,6.3,10.1,66,0.00,,---,0.00,VWS V14.01,2013-03-06 14:57:00,
2013-03-06 10:02:00,36.1,25.9,29.09,East,85,6.9,6.9,66,0.00,,---,0.00,VWS V14.01,2013-03-06 15:02:00,
2013-03-06 10:07:00,36.3,26.4,29.09,ESE,120,4.5,5.8,67,0.00,,---,0.00,VWS V14.01,2013-03-06 15:07:00,
2013-03-06 10:12:00,36.3,26.4,29.09,ESE,111,7.8,7.8,67,0.00,,---,0.00,VWS V14.01,2013-03-06 15:12:00,
2013-03-06 10:18:00,36.1,26.6,29.09,NE,46,3.6,4.9,68,0.00,,---,0.00,VWS V14.01,2013-03-06 15:18:00,
2013-03-06 10:23:00,36.3,26.8,29.09,East,99,0.0,3.6,68,0.00,,---,0.00,VWS V14.01,2013-03-06 15:23:00,
2013-03-06 10:28:00,36.3,27.1,29.09,NE,34,3.6,5.8,69,0.00,,---,0.00,VWS V14.01,2013-03-06 15:28:00,
2013-03-06 10:33:00,36.5,27.7,29.09,East,80,4.0,7.4,70,0.00,,---,0.00,VWS V14.01,2013-03-06 15:33:00,
2013-03-06 10:38:00,36.5,27.7,29.09,NNE,17,3.6,5.4,70,0.00,,---,0.00,VWS V14.01,2013-03-06 15:38:00,
2013-03-06 10:44:00,36.7,28.2,29.09,ENE,58,5.4,9.6,71,0.00,,---,0.00,VWS V14.01,2013-03-06 15:44:00,
2013-03-06 10:49:00,36.9,28.7,29.09,NNE,14,2.7,9.2,72,0.00,,---,0.00,VWS V14.01,2013-03-06 15:49:00,
2013-03-06 10:54:00,37.0,28.9,29.09,NE,53,7.8,9.6,72,0.00,,---,0.00,VWS V14.01,2013-03-06 15:54:00,
2013-03-06 10:59:00,37.4,29.5,29.09,NE,54,3.6,4.5,73,0.00,,---,0.00,VWS V14.01,2013-03-06 15:59:00,
2013-03-06 11:04:00,37.6,29.4,29.09,ESE,113,6.3,6.3,72,0.00,,---,0.00,VWS V14.01,2013-03-06 16:04:00,
2013-03-06 11:09:00,37.9,29.7,29.09,ENE,72,6.7,11.2,72,0.00,,---,0.00,VWS V14.01,2013-03-06 16:09:00,
2013-03-06 11:14:00,38.1,29.2,29.09,ENE,58,4.5,6.3,70,0.00,,---,0.00,VWS V14.01,2013-03-06 16:14:00,
2013-03-06 11:19:00,38.1,28.1,29.09,SE,137,4.0,7.8,67,0.00,,---,0.00,VWS V14.01,2013-03-06 16:19:00,
2013-03-06 11:24:00,37.6,26.1,29.09,NE,50,4.5,7.8,63,0.00,,---,0.00,VWS V14.01,2013-03-06 16:24:00,
2013-03-06 11:29:00,37.6,26.1,29.09,NNE,29,4.9,12.1,63,0.00,,---,0.00,VWS V14.01,2013-03-06 16:29:00,
2013-03-06 11:34:00,37.6,26.5,29.09,ESE,107,3.1,4.5,64,0.00,,---,0.00,VWS V14.01,2013-03-06 16:34:00,
2013-03-06 11:39:00,37.8,27.4,29.09,SE,144,6.3,7.8,66,0.00,,---,0.00,VWS V14.01,2013-03-06 16:39:00,
2013-03-06 11:44:00,37.9,28.0,29.09,North,7,3.6,8.3,67,0.00,,---,0.00,VWS V14.01,2013-03-06 16:44:00,
2013-03-06 11:49:00,38.1,28.5,29.09,SE,139,6.7,9.6,68,0.00,,---,0.00,VWS V14.01,2013-03-06 16:49:00,
2013-03-06 11:54:00,38.3,27.6,29.09,NNW,347,6.3,8.7,65,0.00,,---,0.00,VWS V14.01,2013-03-06 16:54:00,
2013-03-06 11:59:00,38.5,26.6,29.09,East,100,7.8,13.4,62,0.00,,---,0.00,VWS V14.01,2013-03-06 16:59:00,
2013-03-06 12:04:00,38.5,26.2,29.09,ENE,76,4.9,8.7,61,0.00,,---,0.00,VWS V14.01,2013-03-06 17:04:00,
2013-03-06 12:09:00,38.5,26.2,29.09,ENE,65,7.8,10.1,61,0.00,,---,0.00,VWS V14.01,2013-03-06 17:09:00,
2013-03-06 12:14:00,38.3,25.2,29.09,North,0,4.9,10.1,59,0.00,,---,0.00,VWS V14.01,2013-03-06 17:14:00,
2013-03-06 12:19:00,38.7,25.2,29.06,NE,51,0.0,10.1,58,0.00,,---,0.00,VWS V14.01,2013-03-06 17:19:00,
2013-03-06 12:24:00,39.2,25.3,29.06,ENE,61,6.3,8.7,57,0.00,,---,0.00,VWS V14.01,2013-03-06 17:24:00,
2013-03-06 12:29:00,39.0,22.0,29.06,NW,323,5.4,6.7,50,0.00,,---,0.00,VWS V14.01,2013-03-06 17:29:00,
2013-03-06 12:35:00,38.5,22.4,29.06,SSE,153,6.3,9.2,52,0.00,,---,0.00,VWS V14.01,2013-03-06 17:35:00,
2013-03-06 12:40:00,38.3,23.1,29.06,East,89,12.1,12.1,54,0.00,,---,0.00,VWS V14.01,2013-03-06 17:40:00,
2013-03-06 12:45:00,38.7,24.3,29.06,East,79,6.3,10.5,56,0.00,,---,0.00,VWS V14.01,2013-03-06 17:45:00,
2013-03-06 12:50:00,38.7,23.5,29.06,NNW,334,5.4,13.0,54,0.00,,---,0.00,VWS V14.01,2013-03-06 17:50:00,
2013-03-06 12:55:00,38.8,21.8,29.06,East,88,5.4,9.2,50,0.00,,---,0.00,VWS V14.01,2013-03-06 17:55:00,
2013-03-06 13:00:00,39.0,22.0,29.06,North,351,6.3,13.9,50,0.00,,---,0.00,VWS V14.01,2013-03-06 18:00:00,
2013-03-06 13:05:00,38.7,17.6,29.06,East,89,4.5,7.4,42,0.00,,---,0.00,VWS V14.01,2013-03-06 18:05:00,
2013-03-06 13:11:00,38.8,17.2,29.06,East,96,6.7,6.7,41,0.00,,---,0.00,VWS V14.01,2013-03-06 18:11:00,
2013-03-06 13:16:00,39.0,16.8,29.06,ENE,61,5.8,11.0,40,0.00,,---,0.00,VWS V14.01,2013-03-06 18:16:00,
2013-03-06 13:21:00,39.2,16.9,29.06,East,80,4.5,9.6,40,0.00,,---,0.00,VWS V14.01,2013-03-06 18:21:00,
2013-03-06 13:26:00,39.0,16.2,29.06,SE,130,7.8,7.8,39,0.00,,---,0.00,VWS V14.01,2013-03-06 18:26:00,
2013-03-06 13:31:00,38.8,16.6,29.06,ENE,61,11.0,11.0,40,0.00,,---,0.00,VWS V14.01,2013-03-06 18:31:00,
2013-03-06 13:36:00,38.8,16.6,29.06,ESE,116,4.9,8.3,40,0.00,,---,0.00,VWS V14.01,2013-03-06 18:36:00,
2013-03-06 13:41:00,38.8,16.6,29.06,East,81,4.5,6.7,40,0.00,,---,0.00,VWS V14.01,2013-03-06 18:41:00,
2013-03-06 13:46:00,39.2,16.3,29.06,SSE,168,6.9,7.8,39,0.00,,---,0.00,VWS V14.01,2013-03-06 18:46:00,
2013-03-06 13:52:00,39.0,16.2,29.06,ENE,76,0.0,8.3,39,0.00,,---,0.00,VWS V14.01,2013-03-06 18:52:00,
2013-03-06 13:57:00,38.3,15.5,29.06,NE,53,3.6,7.4,39,0.00,,---,0.00,VWS V14.01,2013-03-06 18:57:00,
2013-03-06 14:02:00,38.3,16.1,29.09,North,0,4.9,7.4,40,0.00,,---,0.00,VWS V14.01,2013-03-06 19:02:00,
2013-03-06 14:07:00,38.1,15.4,29.09,North,0,4.0,7.8,39,0.00,,---,0.00,VWS V14.01,2013-03-06 19:07:00,
2013-03-06 14:12:00,38.1,13.5,29.09,East,94,7.4,11.0,36,0.00,,---,0.00,VWS V14.01,2013-03-06 19:12:00,
2013-03-06 14:17:00,38.1,12.9,29.09,North,0,6.7,11.0,35,0.00,,---,0.00,VWS V14.01,2013-03-06 19:17:00,
2013-03-06 14:22:00,38.1,12.9,29.09,East,80,10.1,10.1,35,0.00,,---,0.00,VWS V14.01,2013-03-06 19:22:00,
2013-03-06 14:27:00,37.9,11.4,29.09,East,86,3.1,4.0,33,0.00,,---,0.00,VWS V14.01,2013-03-06 19:27:00,
2013-03-06 14:32:00,37.9,10.7,29.09,NE,44,2.7,6.9,32,0.00,,---,0.00,VWS V14.01,2013-03-06 19:32:00,
2013-03-06 14:37:00,37.8,10.6,29.09,NNE,14,9.6,11.2,32,0.00,,---,0.00,VWS V14.01,2013-03-06 19:37:00,
2013-03-06 14:43:00,37.8,10.6,29.09,East,97,2.7,7.8,32,0.00,,---,0.00,VWS V14.01,2013-03-06 19:43:00,
2013-03-06 14:48:00,37.9,10.7,29.09,North,0,9.6,9.6,32,0.00,,---,0.00,VWS V14.01,2013-03-06 19:48:00,
2013-03-06 14:53:00,37.9,10.7,29.09,ESE,115,7.4,11.0,32,0.00,,---,0.00,VWS V14.01,2013-03-06 19:53:00,
2013-03-06 14:58:00,37.9,10.7,29.09,ENE,70,8.7,13.0,32,0.00,,---,0.00,VWS V14.01,2013-03-06 19:58:00,
2013-03-06 15:03:00,38.1,10.9,29.06,ESE,123,5.4,9.6,32,0.00,,---,0.00,VWS V14.01,2013-03-06 20:03:00,
2013-03-06 15:08:00,37.9,10.0,29.06,North,7,0.0,6.3,31,0.00,,---,0.00,VWS V14.01,2013-03-06 20:08:00,
2013-03-06 15:13:00,37.9,10.7,29.06,ENE,71,4.0,7.8,32,0.00,,---,0.00,VWS V14.01,2013-03-06 20:13:00,
2013-03-06 15:19:00,37.9,10.0,29.06,ENE,72,4.5,12.1,31,0.00,,---,0.00,VWS V14.01,2013-03-06 20:19:00,
2013-03-06 15:24:00,38.1,10.9,29.06,ENE,70,4.9,6.9,32,0.00,,---,0.00,VWS V14.01,2013-03-06 20:24:00,
2013-03-06 15:30:00,37.9,10.0,29.06,NE,35,4.5,10.1,31,0.00,,---,0.00,VWS V14.01,2013-03-06 20:30:00,
2013-03-06 15:35:00,38.1,10.2,29.06,NNE,31,4.5,10.1,31,0.00,,---,0.00,VWS V14.01,2013-03-06 20:35:00,
2013-03-06 15:40:00,38.1,10.2,29.06,SE,140,4.0,11.6,31,0.00,,---,0.00,VWS V14.01,2013-03-06 20:40:00,
2013-03-06 15:45:00,38.5,10.5,29.06,ENE,66,5.4,5.4,31,0.00,,---,0.00,VWS V14.01,2013-03-06 20:45:00,
2013-03-06 15:50:00,38.5,10.5,29.06,ENE,65,2.7,5.8,31,0.00,,---,0.00,VWS V14.01,2013-03-06 20:50:00,
2013-03-06 15:56:00,38.3,10.3,29.06,North,0,5.4,7.4,31,0.00,,---,0.00,VWS V14.01,2013-03-06 20:56:00,
2013-03-06 16:01:00,38.1,10.2,29.06,North,8,4.5,11.2,31,0.00,,---,0.00,VWS V14.01,2013-03-06 21:01:00,
2013-03-06 16:06:00,38.3,10.3,29.06,East,87,5.8,7.8,31,0.00,,---,0.00,VWS V14.01,2013-03-06 21:06:00,
2013-03-06 16:11:00,38.3,10.3,29.06,ESE,105,5.8,9.2,31,0.00,,---,0.00,VWS V14.01,2013-03-06 21:11:00,
2013-03-06 16:16:00,38.3,10.3,29.06,ESE,109,8.3,8.3,31,0.00,,---,0.00,VWS V14.01,2013-03-06 21:16:00,
2013-03-06 16:21:00,38.5,10.5,29.06,ESE,105,4.9,10.1,31,0.00,,---,0.00,VWS V14.01,2013-03-06 21:21:00,
2013-03-06 16:27:00,38.3,10.3,29.06,NE,50,4.0,13.0,31,0.00,,---,0.00,VWS V14.01,2013-03-06 21:27:00,
2013-03-06 16:32:00,38.1,10.2,29.06,ENE,65,6.9,6.9,31,0.00,,---,0.00,VWS V14.01,2013-03-06 21:32:00,
2013-03-06 16:37:00,38.3,10.3,29.06,North,4,3.6,17.2,31,0.00,,---,0.00,VWS V14.01,2013-03-06 21:37:00,
2013-03-06 16:42:00,38.1,10.2,29.06,North,351,9.6,11.0,31,0.00,,---,0.00,VWS V14.01,2013-03-06 21:42:00,
2013-03-06 16:48:00,38.1,10.2,29.09,NNW,344,4.5,6.7,31,0.00,,---,0.00,VWS V14.01,2013-03-06 21:48:00,
2013-03-06 16:53:00,38.1,10.2,29.09,ENE,61,6.9,6.9,31,0.00,,---,0.00,VWS V14.01,2013-03-06 21:53:00,
2013-03-06 16:58:00,37.9,10.0,29.09,North,4,9.6,9.6,31,0.00,,---,0.00,VWS V14.01,2013-03-06 21:58:00,
2013-03-06 17:03:00,37.9,10.7,29.09,ENE,59,3.6,8.7,32,0.00,,---,0.00,VWS V14.01,2013-03-06 22:03:00,
2013-03-06 17:08:00,37.8,10.6,29.09,North,351,6.9,11.0,32,0.00,,---,0.00,VWS V14.01,2013-03-06 22:08:00,
2013-03-06 17:13:00,37.6,11.1,29.09,ENE,62,6.7,11.0,33,0.00,,---,0.00,VWS V14.01,2013-03-06 22:13:00,
2013-03-06 17:18:00,37.6,11.1,29.09,East,80,5.4,10.1,33,0.00,,---,0.00,VWS V14.01,2013-03-06 22:18:00,
2013-03-06 17:24:00,37.6,11.8,29.09,ENE,57,6.7,6.9,34,0.00,,---,0.00,VWS V14.01,2013-03-06 22:24:00,
2013-03-06 17:29:00,37.2,11.4,29.09,NNE,28,6.3,10.5,34,0.00,,---,0.00,VWS V14.01,2013-03-06 22:29:00,
2013-03-06 17:34:00,37.2,12.1,29.09,East,79,5.4,9.2,35,0.00,,---,0.00,VWS V14.01,2013-03-06 22:34:00,
2013-03-06 17:39:00,37.0,11.9,29.09,NNE,17,4.0,14.8,35,0.00,,---,0.00,VWS V14.01,2013-03-06 22:39:00,
2013-03-06 17:44:00,37.0,12.6,29.09,ENE,73,5.4,12.1,36,0.00,,---,0.00,VWS V14.01,2013-03-06 22:44:00,
2013-03-06 17:49:00,36.9,12.4,29.09,North,351,11.0,11.0,36,0.00,,---,0.00,VWS V14.01,2013-03-06 22:49:00,
2013-03-06 17:54:00,36.7,14.1,29.09,North,0,7.8,7.8,39,0.00,,---,0.00,VWS V14.01,2013-03-06 22:54:00,
2013-03-06 17:59:00,36.3,14.3,29.12,ENE,60,6.9,10.1,40,0.00,,---,0.00,VWS V14.01,2013-03-06 22:59:00,
2013-03-06 18:04:00,36.3,14.3,29.12,North,351,9.6,9.6,40,0.00,,---,0.00,VWS V14.01,2013-03-06 23:04:00,
2013-03-06 18:09:00,36.3,14.3,29.12,NNE,22,9.6,9.6,40,0.00,,---,0.00,VWS V14.01,2013-03-06 23:09:00,
2013-03-06 18:14:00,36.1,14.2,29.12,North,2,7.8,7.8,40,0.00,,---,0.00,VWS V14.01,2013-03-06 23:14:00,
2013-03-06 18:19:00,36.1,14.2,29.12,NE,38,2.7,10.5,40,0.00,,---,0.00,VWS V14.01,2013-03-06 23:19:00,
2013-03-06 18:24:00,36.1,14.2,29.12,NNW,337,4.0,7.4,40,0.00,,---,0.00,VWS V14.01,2013-03-06 23:24:00,
2013-03-06 18:29:00,36.1,14.2,29.12,NE,56,6.9,11.0,40,0.00,,---,0.00,VWS V14.01,2013-03-06 23:29:00,
2013-03-06 18:34:00,36.1,14.2,29.12,ENE,68,2.7,6.3,40,0.00,,---,0.00,VWS V14.01,2013-03-06 23:34:00,
2013-03-06 18:39:00,36.1,13.6,29.12,NNE,29,9.6,12.1,39,0.00,,---,0.00,VWS V14.01,2013-03-06 23:39:00,
2013-03-06 18:44:00,36.1,13.6,29.12,NNW,343,9.2,10.5,39,0.00,,---,0.00,VWS V14.01,2013-03-06 23:44:00,
2013-03-06 18:49:00,36.0,13.4,29.12,NE,46,3.6,11.2,39,0.00,,---,0.00,VWS V14.01,2013-03-06 23:49:00,
2013-03-06 18:54:00,36.0,13.4,29.12,ENE,61,7.8,7.8,39,0.00,,---,0.00,VWS V14.01,2013-03-06 23:54:00,
2013-03-06 18:59:00,36.0,12.2,29.12,ENE,59,7.4,13.0,37,0.00,,---,0.00,VWS V14.01,2013-03-06 23:59:00,
2013-03-06 19:04:00,35.8,12.1,29.12,North,1,5.8,8.3,37,0.00,,---,0.00,VWS V14.01,2013-03-07 00:04:00,
2013-03-06 19:09:00,35.8,12.7,29.12,NE,55,6.9,9.6,38,0.00,,---,0.00,VWS V14.01,2013-03-07 00:09:00,
2013-03-06 19:14:00,35.6,13.7,29.12,North,4,9.6,10.1,40,0.00,,---,0.00,VWS V14.01,2013-03-07 00:14:00,
2013-03-06 19:19:00,35.4,13.5,29.12,North,6,5.4,10.5,40,0.00,,---,0.00,VWS V14.01,2013-03-07 00:19:00,
2013-03-06 19:24:00,35.2,13.9,29.12,North,0,7.4,9.6,41,0.00,,---,0.00,VWS V14.01,2013-03-07 00:24:00,
2013-03-06 19:29:00,35.2,13.4,29.12,NE,44,3.6,6.3,40,0.00,,---,0.00,VWS V14.01,2013-03-07 00:29:00,
2013-03-06 19:34:00,35.2,13.4,29.12,North,0,6.7,11.2,40,0.00,,---,0.00,VWS V14.01,2013-03-07 00:34:00,
2013-03-06 19:39:00,35.2,13.4,29.12,North,6,6.9,9.6,40,0.00,,---,0.00,VWS V14.01,2013-03-07 00:39:00,
2013-03-06 19:44:00,35.2,13.4,29.12,NNE,28,7.8,13.4,40,0.00,,---,0.00,VWS V14.01,2013-03-07 00:44:00,
2013-03-06 19:49:00,35.1,13.2,29.12,North,0,6.3,7.4,40,0.00,,---,0.00,VWS V14.01,2013-03-07 00:49:00,
2013-03-06 19:54:00,35.1,13.2,29.12,NE,38,4.5,7.8,40,0.00,,---,0.00,VWS V14.01,2013-03-07 00:54:00,
2013-03-06 19:59:00,35.1,13.2,29.12,North,2,7.8,10.1,40,0.00,,---,0.00,VWS V14.01,2013-03-07 00:59:00,
2013-03-06 20:04:00,35.1,12.6,29.12,North,3,10.1,10.1,39,0.00,,---,0.00,VWS V14.01,2013-03-07 01:04:00,
2013-03-06 20:09:00,35.1,12.6,29.12,North,3,9.6,12.5,39,0.00,,---,0.00,VWS V14.01,2013-03-07 01:09:00,
2013-03-06 20:14:00,35.1,12.6,29.12,NNE,16,4.5,7.4,39,0.00,,---,0.00,VWS V14.01,2013-03-07 01:14:00,
2013-03-06 20:19:00,35.1,12.0,29.12,North,351,11.2,13.4,38,0.00,,---,0.00,VWS V14.01,2013-03-07 01:19:00,
2013-03-06 20:24:00,35.2,11.6,29.12,North,11,11.6,11.6,37,0.00,,---,0.00,VWS V14.01,2013-03-07 01:24:00,
2013-03-06 20:29:00,35.2,11.0,29.12,North,0,8.7,12.5,36,0.00,,---,0.00,VWS V14.01,2013-03-07 01:29:00,
2013-03-06 20:34:00,35.2,11.0,29.12,NNE,32,3.6,9.2,36,0.00,,---,0.00,VWS V14.01,2013-03-07 01:34:00,
2013-03-06 20:39:00,35.2,11.0,29.12,NE,53,7.4,11.2,36,0.00,,---,0.00,VWS V14.01,2013-03-07 01:39:00,
2013-03-06 20:44:00,35.1,10.8,29.12,NNE,18,7.4,14.3,36,0.00,,---,0.00,VWS V14.01,2013-03-07 01:44:00,
2013-03-06 20:49:00,35.2,11.0,29.12,North,351,14.3,14.3,36,0.00,,---,0.00,VWS V14.01,2013-03-07 01:49:00,
2013-03-06 20:54:00,35.1,10.8,29.12,NE,47,4.5,15.4,36,0.00,,---,0.00,VWS V14.01,2013-03-07 01:54:00,
2013-03-06 20:59:00,35.1,10.8,29.12,NNW,328,11.6,11.6,36,0.00,,---,0.00,VWS V14.01,2013-03-07 01:59:00,
2013-03-06 21:04:00,35.1,10.2,29.12,North,8,5.4,10.5,35,0.00,,---,0.00,VWS V14.01,2013-03-07 02:04:00,
2013-03-06 21:09:00,35.1,10.2,29.12,East,84,4.0,12.5,35,0.00,,---,0.00,VWS V14.01,2013-03-07 02:09:00,
2013-03-06 21:14:00,35.1,10.2,29.12,NNE,15,9.6,13.4,35,0.00,,---,0.00,VWS V14.01,2013-03-07 02:14:00,
2013-03-06 21:19:00,35.1,10.2,29.12,NNE,28,7.4,8.7,35,0.00,,---,0.00,VWS V14.01,2013-03-07 02:19:00,
2013-03-06 21:24:00,35.1,10.2,29.12,North,351,9.6,10.1,35,0.00,,---,0.00,VWS V14.01,2013-03-07 02:24:00,
2013-03-06 21:29:00,35.1,10.2,29.12,North,8,7.8,11.0,35,0.00,,---,0.00,VWS V14.01,2013-03-07 02:29:00,
2013-03-06 21:34:00,35.1,10.2,29.12,NE,49,5.8,6.9,35,0.00,,---,0.00,VWS V14.01,2013-03-07 02:34:00,
2013-03-06 21:39:00,35.2,9.7,29.12,WNW,299,11.6,11.6,34,0.00,,---,0.00,VWS V14.01,2013-03-07 02:39:00,
2013-03-06 21:44:00,35.2,9.7,29.12,SE,125,6.9,11.6,34,0.00,,---,0.00,VWS V14.01,2013-03-07 02:44:00,
2013-03-06 21:50:00,35.4,9.2,29.12,ENE,78,4.0,15.4,33,0.00,,---,0.00,VWS V14.01,2013-03-07 02:50:00,
2013-03-06 21:55:00,35.4,9.9,29.12,East,84,6.9,16.3,34,0.00,,---,0.00,VWS V14.01,2013-03-07 02:55:00,
2013-03-06 22:00:00,35.4,9.2,29.12,ENE,57,4.9,10.5,33,0.00,,---,0.00,VWS V14.01,2013-03-07 03:00:00,
2013-03-06 22:05:00,35.4,9.9,29.12,North,351,4.5,9.2,34,0.00,,---,0.00,VWS V14.01,2013-03-07 03:05:00,
2013-03-06 22:10:00,35.4,9.2,29.12,NNE,17,9.2,15.2,33,0.00,,---,0.00,VWS V14.01,2013-03-07 03:10:00,
2013-03-06 22:15:00,35.4,9.9,29.12,ENE,67,9.6,9.6,34,0.00,,---,0.00,VWS V14.01,2013-03-07 03:15:00,
2013-03-06 22:20:00,35.4,9.2,29.12,North,351,8.3,12.5,33,0.00,,---,0.00,VWS V14.01,2013-03-07 03:20:00,
2013-03-06 22:26:00,35.4,9.9,29.12,East,89,5.4,12.1,34,0.00,,---,0.00,VWS V14.01,2013-03-07 03:26:00,
2013-03-06 22:31:00,35.2,9.7,29.12,NNE,13,6.7,7.4,34,0.00,,---,0.00,VWS V14.01,2013-03-07 03:31:00,
2013-03-06 22:36:00,35.2,9.7,29.12,North,8,7.8,11.0,34,0.00,,---,0.00,VWS V14.01,2013-03-07 03:36:00,
2013-03-06 22:41:00,35.2,9.7,29.12,North,0,9.6,11.2,34,0.00,,---,0.00,VWS V14.01,2013-03-07 03:41:00,
2013-03-06 22:46:00,35.2,9.0,29.12,North,0,8.3,11.6,33,0.00,,---,0.00,VWS V14.01,2013-03-07 03:46:00,
2013-03-06 22:51:00,35.2,9.0,29.12,East,83,3.1,9.2,33,0.00,,---,0.00,VWS V14.01,2013-03-07 03:51:00,
2013-03-06 22:57:00,35.2,9.0,29.12,North,6,6.3,12.5,33,0.00,,---,0.00,VWS V14.01,2013-03-07 03:57:00,
2013-03-06 23:02:00,35.2,9.0,29.12,North,2,10.1,13.9,33,0.00,,---,0.00,VWS V14.01,2013-03-07 04:02:00,
2013-03-06 23:08:00,35.2,9.0,29.12,North,351,8.7,12.1,33,0.00,,---,0.00,VWS V14.01,2013-03-07 04:08:00,
2013-03-06 23:13:00,35.1,8.9,29.12,North,1,4.5,10.1,33,0.00,,---,0.00,VWS V14.01,2013-03-07 04:13:00,
2013-03-06 23:18:00,35.2,9.0,29.12,North,351,10.5,11.0,33,0.00,,---,0.00,VWS V14.01,2013-03-07 04:18:00,
2013-03-06 23:23:00,35.1,8.9,29.12,ENE,78,2.7,7.4,33,0.00,,---,0.00,VWS V14.01,2013-03-07 04:23:00,
2013-03-06 23:29:00,35.1,8.9,29.12,North,351,8.3,8.3,33,0.00,,---,0.00,VWS V14.01,2013-03-07 04:29:00,
2013-03-06 23:34:00,35.1,8.9,29.12,North,0,8.7,12.5,33,0.00,,---,0.00,VWS V14.01,2013-03-07 04:34:00,
2013-03-06 23:39:00,35.1,8.9,29.12,North,9,4.5,7.8,33,0.00,,---,0.00,VWS V14.01,2013-03-07 04:39:00,
2013-03-06 23:44:00,35.1,9.5,29.12,NNW,335,5.4,6.7,34,0.00,,---,0.00,VWS V14.01,2013-03-07 04:44:00,
2013-03-06 23:49:00,35.1,8.9,29.12,NE,52,2.7,9.6,33,0.00,,---,0.00,VWS V14.01,2013-03-07 04:49:00,
2013-03-06 23:54:00,35.1,8.9,29.12,North,2,6.7,11.0,33,0.00,,---,0.00,VWS V14.01,2013-03-07 04:54:00,
2013-03-06 23:59:00,35.1,8.9,29.12,NNE,22,4.0,6.3,33,0.00,,---,0.00,VWS V14.01,2013-03-07 04:59:00,